STARLINK-32400, 61669

Orbit data source: Space-Track

STARLINK-32400, 61669 is a payload satellite owned by SpaceX/Seattle (US) in LEO that was launched on Sat, 26 Oct 2024 UTC via an FALCON 9 launch vehicle from the Air Force Eastern Test Range (AFETR). Payload-class satellites include a variety of spacecraft equipped with specific instruments for various scientific and technological missions. These include communications satellites like Starlink; space stations such as the ISS; scientific satellites like the Hubble; Earth observation satellites from companies like Planet Labs, Umbra, and HawkEye 360; GPS; miniature CubeSats for education and research; and military/defense satellites.

Loading next visibility...
Identifier
61669, 2024-193J
Orbit
LEO
Country
Flag of USUS
Related business
Manufacturer
SpaceX/Seattle
Mission
Operational Commercial Communications
Bus & Motor
STARLINK V2M, Unknown motor
Mass
730 kg wet, ~700 kg dry
Launch date (UTC)
2024-10-26 (1 year ago)
Launch vehicle
FALCON 9
Launch site
Air Force Eastern Test Range (AFETR)
Object type
Payload
Rocket body
Debris
Shape & HBR
Box + 2 Pan, 17.7 m
Radar Cross Section
33.884 m², Large (>1 m²)

Expand to show TLE details & history
Last TLE update: 5 hours ago

TLE from 5 hours ago
0 STARLINK-32400
1 61669U 24193J   25312.17635205  .00001284  00000-0  55463-4 0  9991
2 61669  53.1599 293.2063 0001359 100.1487 259.9668 15.30195836 57958
Epoch: 2025-11-08T04:13Z
TLE epoch observation values (Epoch: 2025-11-08T04:13:56.817Z)
Latitude
0.00007°
Longitude
-177.89011°
Altitude
476.29 km
Speed
7.629 km/s
True Right ascension
19h 32m 49s
True Declination
0° 00' 00"
Sunlit
Object was in daylight at epoch
Visualization orbit readout
Latitude
Unknown
Longitude
Unknown
Altitude
Unknown
Speed
Unknown
Apparent Right ascension
Unknown
Apparent Declination
Unknown
Sunlit
N/A
Visualization observer readout
Local Sidereal Time
05:42:16
Azimuth
Unknown
Elevation
Unknown
Doppler factor
Unknown
Orbital elements
Apogee altitude
476.415 km
Perigee altitude
474.553 km
Semi-major axis
6,853.621 km
Eccentricity
0.00014
Inclination
53.1599°
RAAN
293.2063°
Arg. of periapsis
100.1487°
True anomaly
259.95147°
Mean anomaly
259.9668°
Eccentric anomaly
259.95913°
Mean motion
3.82528 °/min
Orbital period
94.11 mins
BSTAR
0.000055463
Loading maneuver chart data...
Computing Atmospheric mass density...
Loading historical data...
Loading historical data...
Loading historical data...
Loading historical data...
Loading historical data...
Loading historical data...
Loading historical data...

Documentation

Showing up to 5 results
|